Glasgow, MT

5:54 AM MDT on September 24, 2017 (GMT -0600)
Wokal-Glasgow International

Weather History for KGGW - June, 2014

Change the Weather History Date:

Friday, June 20, 2014

  Actual Average Record
Temperature  
Mean Temperature 66 °F 65 °F  
Max Temperature 82 °F 78 °F 104 °F (1988)
Min Temperature 50 °F 52 °F 30 °F (1902)
Degree Days  
Heating Degree Days 0 3  
Month to date heating degree days 102 87  
Since 1 June heating degree days 102 87  
Since 1 July heating degree days 8910 8418  
Cooling Degree Days 1 3  
Month to date cooling degree days 4 39  
Year to date cooling degree days 38 56  
Since 1 June cooling degree days 4 39  
Growing Degree Days 16 (Base 50)    
Moisture  
Dew Point 49 °F    
Average Humidity 61    
Maximum Humidity 93    
Minimum Humidity 28    
Precipitation  
Precipitation 0.00 in 0.08 in 2.05 in (1921)
Month to date precipitation 1.79 1.62  
Year to date precipitation 5.18 5.44  
Snow  
Snow 0.00 in 0.00 in 0.00 in (2002)
Month to date snowfall 0.0 0.0  
Since 1 June snowfall 0.0 0.0  
Since 1 July snowfall 30.4 34.8  
Snow Depth 0.00 in    
Sea Level Pressure  
Sea Level Pressure 29.80 in    
Wind  
Wind Speed 12 mph (West)    
Max Wind Speed 28 mph    
Max Gust Speed 33 mph    
Visibility 10 miles    
Events      
T = Trace of Precipitation, MM = Missing Value Source: NWS Daily Summary

Daily Weather History Graph

Daily Weather History Graph

Search for Another Location

Airport or City:

Trip Planner

Search our weather history database for the weather conditions in past years. The results will help you decide how hot, cold, wet, or windy it might be!

Date:

Astronomy

Jun. 20, 2014 Rise Set
Actual Time 5:05 AM MDT 9:10 PM MDT
Civil Twilight 4:24 AM MDT 9:52 PM MDT
Nautical Twilight 3:25 AM MDT 10:50 PM MDT
Astronomical Twilight 1:39 AM MDT 12:36 AM MDT
Moon 1:13 AM MDT (6/20) 2:23 PM MDT (6/20)
Length of Visible Light 17h 28m
Length of Day
16h 04m
Last Quarter, 39% of the Moon is Illuminated
Jun 20
Last Quarter
Jun 27
New
Jul 5
First Quarter
Jul 12
Full
Jul 18
Last Quarter

Hourly Weather History & Observations

Time (MDT) Temp. Dew Point Humidity Pressure Visibility Wind Dir Wind Speed Gust Speed Precip Events Conditions
12:53 AM 55.0 °F 50.0 °F 83% 29.81 in 10.0 mi West 15.0 mph 23.0 mph N/A   Overcast
1:53 AM 52.0 °F 48.9 °F 89% 29.81 in 10.0 mi West 11.5 mph - N/A   Clear
2:53 AM 50.0 °F 48.0 °F 93% 29.82 in 10.0 mi West 6.9 mph - N/A   Clear
3:53 AM 51.1 °F 48.9 °F 92% 29.83 in 10.0 mi WNW 8.1 mph - N/A   Scattered Clouds
4:53 AM 50.0 °F 48.9 °F 96% 29.84 in 10.0 mi West 9.2 mph - N/A   Clear
5:53 AM 51.1 °F 48.9 °F 92% 29.86 in 10.0 mi West 6.9 mph - N/A   Clear
6:53 AM 54.0 °F 50.0 °F 86% 29.86 in 10.0 mi West 8.1 mph - N/A   Clear
7:53 AM 57.2 °F 51.8 °F 82% 29.86 in 10.0 mi West 8.1 mph - N/A   Clear
8:53 AM 62.1 °F 52.0 °F 70% 29.85 in 10.0 mi WNW 8.1 mph - N/A   Clear
9:53 AM 64.9 °F 50.0 °F 58% 29.84 in 10.0 mi West 9.2 mph - N/A   Clear
10:53 AM 68.0 °F 52.0 °F 56% 29.83 in 10.0 mi WSW 15.0 mph - N/A   Mostly Cloudy
11:53 AM 72.0 °F 52.0 °F 49% 29.82 in 10.0 mi WSW 10.4 mph - N/A   Partly Cloudy
12:53 PM 75.0 °F 48.9 °F 40% 29.80 in 10.0 mi WSW 13.8 mph - N/A   Scattered Clouds
1:53 PM 78.1 °F 48.0 °F 35% 29.79 in 10.0 mi West 12.7 mph 25.3 mph N/A   Partly Cloudy
2:53 PM 77.0 °F 48.0 °F 36% 29.78 in 10.0 mi WNW 19.6 mph 24.2 mph N/A   Mostly Cloudy
3:53 PM 81.0 °F 46.0 °F 29% 29.77 in 10.0 mi West 23.0 mph 33.4 mph N/A   Partly Cloudy
4:53 PM 81.0 °F 48.0 °F 31% 29.76 in 10.0 mi WNW 18.4 mph 28.8 mph N/A   Partly Cloudy
5:53 PM 81.0 °F 46.0 °F 29% 29.75 in 10.0 mi WNW 21.9 mph 29.9 mph N/A   Partly Cloudy
6:53 PM 80.1 °F 44.1 °F 28% 29.74 in 10.0 mi West 21.9 mph 32.2 mph N/A   Partly Cloudy
7:53 PM 78.1 °F 44.1 °F 30% 29.73 in 10.0 mi WNW 15.0 mph 24.2 mph N/A   Clear
8:53 PM 70.0 °F 48.0 °F 46% 29.75 in 10.0 mi West 6.9 mph - N/A   Clear
9:53 PM 66.0 °F 48.0 °F 52% 29.77 in 10.0 mi WSW 5.8 mph - N/A   Clear
10:53 PM 63.0 °F 50.0 °F 63% 29.78 in 10.0 mi WSW 6.9 mph - N/A   Clear
11:53 PM 62.1 °F 50.0 °F 65% 29.78 in 10.0 mi West 8.1 mph - N/A   Clear